www.pogodaiklimat.ru

Погода и климат >> Архив погоды >> Гренландия >> Qaarsut Mittarfia


ПОГОДА в Qaarsut Mittarfia

  • Прогноз погоды в Qaarsut Mittarfia
  • Монитор погоды в Qaarsut Mittarfia
  • Климат города

АРХИВ ПОГОДЫ в Qaarsut Mittarfia

Время (UTC), дата Ветер
(напр.,м/с)
 
Видим.   Явления Облачность Т
(С)
Тd
(С)
f
(%)
Тe
(С)
Тes
(С)
Комфортность P
(гПа)
Po
(гПа)
Тmin
(С)
Tmax
(С)
R
(мм)
R24
(мм)
S
(см)
14 14.10 ЮВ 6 35 км 10/0 2000 м
[]
-4.1 -6.9 81 -11 -11 1000.2 989.0
13 14.10 ЮВ 4 35 км 10/0 2000 м
[]
-4.5 -7.5 80 -10 -10 1000.5 989.3
15 14.10 ЮВ 6 35 км 10/0 2000 м
[]
-3.9 -6.7 81 -11 -11 1000.0 988.9
16 14.10 ЮВ 5 35 км 10/0 2000 м
[]
-3.8 -6.6 81 -11 -11 1000.1 988.9
17 14.10 ЮВ 5 35 км 9/9 660 м
[]
-3.7 -6.2 83 -11 -11 1000.3 989.1
18 14.10 ЮВ 4 35 км 10/10 540 м
[]
-3.7 -6.7 80 -9 -9 1000.4 989.2 -7.3 -3.6
20 14.10 ЮВ 3 35 км 9/9 500 м
[]
-4.3 -7.3 80 -9 -9 1000.5 989.4
19 14.10 ЮВ 3 35 км 10/0 2000 м
[]
-3.8 -7.0 78 -9 -9 1000.5 989.3
21 14.10 Ю 3 35 км 10/0 2000 м
[]
-4.5 -7.7 78 -9 -9 1000.4 989.2
22 14.10 Ю 4 35 км 5/5 570 м
[]
-4.4 -8.9 71 -11 -11 1000.2 989.0
23 14.10 ЮВ 4 35 км ясно -5.3 -9.4 73 -12 -12 1000.0 988.8
00 15.10 Ю 2 35 км ясно -5.4 -11.8 61 -9 -9 999.7 988.5
02 15.10 ЮВ 5 35 км ясно -5.2 -12.0 59 -12 -12 998.9 987.7
01 15.10 ЮВ 4 35 км ясно -5.7 -13.4 55 -12 -12 999.3 988.1
03 15.10 ЮВ 4 35 км ясно -5.6 -13.3 55 -11 -11 998.7 987.5
04 15.10 ЮВ 5 35 км ясно -5.8 -10.9 67 -13 -13 998.1 986.9
05 15.10 ЮВ 4 35 км ясно -4.9 -11.1 62 -11 -11 997.7 986.5
06 15.10 ЮВ 4 35 км ясно -6.1 -10.7 70 -13 -13 997.5 986.3 -7.2 -3.6
08 15.10 ЮВ 6 35 км 4/0
[]
-5.4 -12.2 59 -13 -13 996.7 985.5
07 15.10 Ю 3 35 км ясно -5.6 -13.3 55 -10 -10 997.1 985.9
09 15.10 ЮВ 7 35 км ясно -4.7 -12.3 55 -12 -12 996.1 985.0
10 15.10 ЮВ 5 35 км ясно -5.4 -12.0 60 -12 -12 996.0 984.8
11 15.10 ЮВ 6 35 км ясно -5.2 -13.5 52 -12 -12 995.7 984.5
12 15.10 ЮВ 5 30 км слаб. ливневой снег ясно -4.2 -15.6 41 -10 -10 995.5 984.4
14 15.10 ЮВ 9 35 км ясно -4.4 -12.0 55 -13 -13 995.1 984.0
13 15.10 0 35 км ясно -4.0 -14.5 44 995.3 984.2
15 15.10 ЮВ 9 35 км ясно -4.4 -11.3 59 -13 -13 994.7 983.6
16 15.10 ЮВ 11 35 км ясно -5.0 -13.0 53 -14 -14 994.3 983.2
17 15.10 В 8 17 км ясно -4.9 -15.6 43 -13 -13 994.3 983.1
18 15.10 В 8 35 км ясно -4.8 -15.8 42 -13 -13 994.0 982.9 -5.5 -3.8
20 15.10 ЮВ 7 35 км ясно -6.1 -15.9 46 -14 -14 993.8 982.6
19 15.10 ЮВ 6 35 км ясно -5.9 -14.9 49 -13 -13 993.9 982.8
21 15.10 ЮВ 8 35 км ясно -6.4 -15.9 47 -15 -15 993.6 982.4
22 15.10 ЮВ 7 35 км ясно -6.0 -16.1 45 -14 -14 993.4 982.3
23 15.10 ЮВ 6 35 км 6/0
[]
-6.0 -16.1 45 -13 -13 993.3 982.1
00 16.10 ЮВ 7 35 км 8/0
[]
-5.8 -16.7 42 -14 -14 993.0 981.8
02 16.10 В 8 35 км 10/0 2000 м
[]
-4.8 -17.4 37 -13 -13 992.5 981.4
01 16.10 В 7 35 км 9/0 2000 м
[]
-5.7 -15.2 47 -14 -14 992.9 981.8
03 16.10 В 7 35 км 9/0
[]
-4.8 -17.7 36 -12 -12 992.2 981.1
04 16.10 ЮВ 9 35 км 9/0
[]
-4.8 -16.4 40 -13 -13 991.6 980.5
05 16.10 ЮВ 10 35 км 5/0
[]
-4.6 -14.2 47 -14 -14 991.7 980.6
06 16.10 ЮВ 10 35 км 8/0
[]
-4.7 -12.7 54 -14 -14 991.8 980.7 -6.7 -4.4
08 16.10 ЮВ 12 35 км 9/0
[]
-4.2 -12.5 52 -14 -14 992.4 981.3
07 16.10 ЮВ 10 35 км 6/0
[]
-4.2 -12.8 51 -13 -13 992.0 981.0
09 16.10 ЮВ 12 30 км 10/10 1500 м
[]
-4.2 -10.9 60 -14 -14 992.5 981.5
10 16.10 ЮВ 11 35 км 10/0
[]
-4.3 -9.4 68 -14 -14 993.3 982.2
11 16.10 ЮВ 9 35 км 9/9 600 м
[]
-4.0 -8.7 70 -13 -13 994.0 982.9
12 16.10 ЮВ 9 35 км {снег} 8/0
[]
-3.6 -8.3 70 -12 -12 994.8 983.7
14 16.10 В 10 35 км 6/0
[]
-2.5 -7.9 66 -11 -11 995.9 984.8
13 16.10 ЮВ 7 35 км 8/8 600 м
[]
-2.8 -8.2 66 -10 -10 995.4 984.4
15 16.10 ЮВ 10 35 км 9/0
[]
-2.2 -8.5 62 -11 -11 996.6 985.5
16 16.10 В 10 35 км 9/0
[]
-2.1 -7.7 65 -11 -11 997.5 986.5
17 16.10 ЮВ 12 35 км 9/9 600 м
[]
-2.3 -7.3 69 -11 -11 997.9 986.8
18 16.10 В 11 35 км 9/0
[]
-2.8 -8.9 63 -12 -12 998.4 987.3 -4.8 -1.7
20 16.10 ЮВ 10 35 км 9/0
[]
-3.7 -9.9 62 -13 -13 1000.0 988.9
19 16.10 ЮВ 10 35 км 9/0
[]
-3.5 -9.5 63 -12 -12 999.4 988.2
21 16.10 ЮВ 9 35 км в посл. час снег {ливн. осадки} 10/0
[]
-3.6 -10.3 60 -12 -12 1000.0 988.9
22 16.10 ЮВ 9 35 км {ливн. осадки, снег} 10/0
[]
-4.1 -11.0 59 -13 -13 1000.4 989.2
23 16.10 ЮВ 7 35 км {ливн. осадки, снег} 1/0
[]
-4.9 -11.3 61 -13 -13 1000.6 989.4
00 17.10 ЮВ 7 35 км 5/0
[]
-5.2 -11.8 60 -13 -13 1001.0 989.8
02 17.10 ЮВ 7 35 км 5/0 2000 м
[]
-4.9 -11.7 59 -13 -13 1000.9 989.7
01 17.10 ЮВ 7 35 км 1/0
[]
-5.2 -11.8 60 -13 -13 1000.9 989.7
03 17.10 ЮВ 6 35 км 4/0 2000 м
[]
-5.8 -12.4 60 -13 -13 1000.7 989.5
04 17.10 ЮВ 5 35 км ясно -5.7 -13.2 55 -12 -12 1000.5 989.3
05 17.10 ЮВ 5 35 км ясно -5.9 -13.9 53 -13 -13 1000.4 989.1
06 17.10 ЮВ 6 35 км ясно -6.2 -14.1 54 -14 -14 1000.3 989.0 -6.9 -2.7
08 17.10 ЮВ 6 35 км ясно -6.9 -13.9 57 -15 -15 1000.3 989.0
07 17.10 ЮВ 6 35 км ясно -6.8 -13.3 60 -14 -14 1000.4 989.1
09 17.10 ЮВ 6 35 км ясно -7.0 -14.0 57 -15 -15 1000.2 988.9
10 17.10 ЮВ 7 35 км ясно -7.2 -13.9 59 -15 -15 1000.1 988.8
11 17.10 ЮВ 7 35 км ясно -6.8 -14.5 54 -15 -15 999.9 988.7
12 17.10 ЮВ 7 35 км ясно -6.9 -14.8 53 -15 -15 999.7 988.4
14 17.10 ЮВ 7 35 км ясно -7.1 -14.7 55 -16 -15 999.2 988.0
13 17.10 ЮВ 7 35 км ясно -6.6 -13.8 57 -15 -15 999.6 988.4
15 17.10 ЮВ 7 35 км ясно -7.3 -14.5 56 -16 -15 999.0 987.7
16 17.10 ЮВ 6 35 км ясно -7.6 -15.0 55 -15 -15 998.7 987.4
17 17.10 ЮВ 6 35 км ясно -7.6 -14.7 57 -15 -15 998.8 987.5
18 17.10 ЮВ 5 35 км ясно -7.8 -15.4 54 -15 -15 999.0 987.7 -8.0 -5.9
20 17.10 ЮВ 6 35 км ясно -7.8 -15.6 53 -16 -16 999.3 988.0
19 17.10 ЮВ 5 35 км ясно -8.1 -15.5 55 -15 -15 998.9 987.6
21 17.10 ЮВ 5 35 км ясно -7.9 -16.2 51 -15 -15 999.2 987.9
22 17.10 ЮВ 7 35 км ясно -7.8 -16.1 51 -16 -16 999.7 988.4
23 17.10 ЮВ 5 35 км ясно -8.4 -18.0 46 -15 -15 999.8 988.5
00 18.10 ЮВ 3 35 км ясно -8.2 -17.5 47 -14 -14 999.9 988.6
02 18.10 Ю 3 35 км ясно -7.7 -16.8 48 -13 -13 1000.1 988.8
01 18.10 Ю 3 35 км ясно -8.1 -17.5 47 -14 -14 1000.0 988.7
03 18.10 Ю 4 35 км ясно -8.6 -16.4 53 -15 -15 1000.2 988.8
04 18.10 Ю 3 35 км ясно -8.4 -16.2 53 -14 -14 1000.4 989.1
05 18.10 Ю 3 35 км ясно -8.6 -16.4 53 -14 -14 1000.9 989.6
06 18.10 Ю 4 35 км ясно -8.3 -15.6 56 -14 -14 1001.3 990.0 -9.6 -6.9
08 18.10 Ю 2 35 км ясно -8.3 -15.9 54 -13 -13 1002.4 991.0
07 18.10 Ю 3 35 км ясно -8.5 -15.4 57 -14 -14 1001.8 990.5
09 18.10 Ю 3 35 км ясно -8.2 -15.8 54 -13 -13 1003.1 991.7
10 18.10 ЮВ 4 35 км ясно -9.0 -15.8 58 -15 -15 1003.9 992.5
11 18.10 ЮВ 4 35 км ясно -9.6 -15.5 62 -16 -16 1004.5 993.1
12 18.10 ЮВ 4 35 км ясно -8.9 -16.0 56 -16 -16 1005.1 993.6
14 18.10 ЮВ 4 35 км ясно -8.8 -15.9 56 -15 -15 1006.0 994.5
13 18.10 ЮВ 5 35 км ясно -9.2 -15.4 61 -17 -17 1005.5 994.1
15 18.10 ЮВ 4 35 км ясно -9.0 -16.1 56 -15 -15 1006.2 994.8
16 18.10 ЮВ 3 35 км ясно -9.9 -16.0 61 -15 -15 1006.6 995.1
17 18.10 ЮВ 3 35 км ясно -8.9 -16.2 55 -14 -14 1006.8 995.4
18 18.10 Ю 3 35 км ясно -10.1 -16.4 60 -15 -15 1007.2 995.7 -10.6 -7.7
20 18.10 ЮЗ 3 35 км ясно -9.8 -15.7 62 -16 -16 1007.6 996.1
19 18.10 Ю 2 35 км ясно -10.4 -16.3 62 -15 -15 1007.4 995.9
21 18.10 ЮЗ 3 35 км ясно -11.3 -16.3 66 -17 -17 1007.9 996.4
22 18.10 ЮЗ 5 35 км ясно -9.9 -15.6 63 -17 -17 1007.9 996.4
23 18.10 ЮЗ 4 35 км ясно -11.0 -15.1 72 -18 -18 1008.1 996.5
00 19.10 ЮЗ 5 35 км ясно -10.6 -14.7 72 -18 -18 1007.9 996.4
02 19.10 ЮЗ 7 35 км ясно -10.3 -14.4 72 -19 -19 1007.4 995.9
01 19.10 ЮЗ 5 35 км ясно -10.6 -14.5 73 -18 -18 1007.7 996.2
03 19.10 ЮЗ 6 35 км ясно -9.4 -14.1 69 -18 -18 1007.2 995.7
04 19.10 ЮЗ 5 35 км ясно -10.6 -14.5 73 -19 -19 1006.9 995.4
05 19.10 ЮЗ 6 35 км ясно -10.2 -14.3 72 -18 -18 1006.7 995.2
06 19.10 ЮЗ 5 35 км ясно -9.2 -14.3 66 -17 -17 1006.5 995.1 -11.9 -8.8
08 19.10 З 6 35 км ясно -9.1 -13.8 69 -17 -17 1006.2 994.8
07 19.10 З 7 35 км ясно -8.3 -13.2 68 -17 -17 1006.2 994.8
09 19.10 ЮЗ 5 35 км ясно -8.4 -14.2 63 -16 -16 1006.0 994.6
10 19.10 З 5 35 км ясно -9.1 -14.2 66 -17 -17 1006.1 994.7
11 19.10 ЮЗ 4 35 км ясно -8.7 -13.2 70 -16 -16 1005.9 994.5
12 19.10 ЮЗ 5 35 км {снег} ясно -8.6 -12.7 72 -16 -16 1005.7 994.3
14 19.10 З 4 35 км ясно -8.7 -13.0 71 -15 -15 1004.7 993.3
13 19.10 З 6 35 км 1/1 540 м
[]
-8.4 -12.9 70 -17 -17 1005.3 993.9
15 19.10 З 4 35 км 3/3 750 м
[]
-7.4 -12.4 67 -14 -14 1004.1 992.7
16 19.10 З 4 35 км 9/9 600 м
[]
-7.2 -11.2 73 -13 -13 1003.8 992.4
17 19.10 ЮЗ 5 35 км 9/9 630 м
[]
-7.1 -12.5 65 -14 -14 1003.2 991.8
18 19.10 ЮЗ 3 35 км 10/10 630 м
[]
-7.4 -12.2 68 -13 -13 1002.9 991.6 -9.9 -6.7
20 19.10 ЮЗ 5 35 км слаб. ливневой снег 10/10 630 м
[]
-8.0 -11.8 74 -16 -16 1002.1 990.8
19 19.10 ЮЗ 4 35 км слаб. ливневой снег 10/10 600 м
[]
-7.5 -11.7 72 -14 -14 1002.7 991.4
21 19.10 З 4 35 км {ливн. осадки, снег} 9/9 630 м
[]
-8.2 -11.6 76 -15 -15 1001.5 990.1
22 19.10 З 4 35 км {ливн. осадки, снег} 8/8 600 м
[]
-8.4 -11.4 79 -15 -15 1001.0 989.6
23 19.10 З 5 35 км {ливн. осадки, снег} 9/9 750 м
[]
-7.9 -11.9 73 -15 -15 1000.2 988.9
00 20.10 З 5 35 км 1/1 720 м
[]
-8.8 -13.5 69 -16 -16 999.4 988.1
02 20.10 З 5 35 км ясно -8.9 -13.4 70 -17 -17 997.5 986.1
01 20.10 З 5 35 км ясно -8.7 -13.8 67 -16 -16 998.5 987.2
03 20.10 З 6 35 км ясно -9.8 -13.9 72 -18 -18 996.7 985.3
04 20.10 СЗ 5 35 км 1/1 870 м
[]
-9.0 -12.9 73 -17 -17 996.1 984.8
05 20.10 З 6 35 км 1/1 870 м
[]
-8.6 -13.5 68 -17 -17 995.5 984.2
06 20.10 З 6 35 км ясно -8.9 -13.6 69 -17 -17 995.4 984.1 -10.1 -7.3
08 20.10 З 6 35 км 1/1 630 м
[]
-8.4 -11.8 76 -17 -17 995.5 984.2
07 20.10 З 5 35 км 9/9 900 м
[]
-7.8 -12.4 69 -15 -15 995.5 984.2
09 20.10 З 7 35 км 1/1 630 м
[]
-7.7 -11.5 74 -16 -16 995.6 984.4
10 20.10 З 2 35 км 9/9 720 м
[]
-7.2 -11.6 71 -11 -11 996.1 984.8
11 20.10 ЮВ 1 35 км 10/10 720 м
[]
-7.7 -11.5 74 -10 -10 996.5 985.3
12 20.10 ЮЗ 2 35 км 10/10 800 м
[]
-7.7 -11.3 75 -11 -11 997.2 985.9
14 20.10 ЮЗ 3 35 км {ливн. осадки} 10/10 630 м
[]
-8.8 -12.0 78 -14 -14 998.1 986.8
13 20.10 ЮЗ 2 30 км {ливн. осадки} 10/10 800 м
[]
-8.1 -11.3 78 -13 -13 997.6 986.3
15 20.10 ЮЗ 3 35 км {ливн. осадки} 10/10 630 м
[]
-9.1 -12.5 76 -15 -15 998.7 987.3
16 20.10 Ю 2 35 км {ливн. осадки} 10/10 840 м
[]
-6.9 -11.9 67 -10 -10 999.3 988.1
17 20.10 ЮВ 2 35 км {ливн. осадки} 9/9 600 м
[]
-6.9 -12.3 65 -11 -11 1000.1 988.8
18 20.10 ЮВ 3 35 км 9/9 1500 м
[]
-7.2 -12.6 65 -12 -12 1001.0 989.7 -9.2 -6.8
20 20.10 ЮВ 5 35 км в посл. час снег {ливн. осадки} 10/10 1300 м
[]
-7.5 -12.9 65 -15 -15 1002.7 991.3
19 20.10 ЮВ 5 35 км 10/10 840 м
[]
-7.1 -12.7 64 -14 -14 1001.9 990.6
21 20.10 ЮВ 6 35 км {ливн. осадки, снег} 10/10 1200 м
[]
-7.3 -12.5 66 -15 -15 1003.5 992.2
22 20.10 ЮВ 5 35 км {ливн. осадки, снег} 1/0 2000 м
[]
-7.8 -12.8 67 -15 -15 1004.4 993.0
23 20.10 ЮВ 7 35 км {ливн. осадки, снег} 9/9 1500 м
[]
-7.5 -12.5 67 -16 -16 1005.2 993.8
00 21.10 ЮВ 7 35 км 9/0
[]
-6.8 -11.8 68 -15 -15 1005.8 994.4
02 21.10 ЮВ 8 35 км 9/0
[]
-6.5 -10.9 71 -15 -15 1007.2 995.8
01 21.10 ЮВ 7 35 км 9/0 2000 м
[]
-6.3 -11.1 69 -14 -14 1006.5 995.1
03 21.10 ЮВ 6 35 км 9/0 2000 м
[]
-7.0 -11.2 72 -15 -15 1007.9 996.5
04 21.10 ЮВ 7 35 км 9/0
[]
-6.7 -11.7 68 -15 -15 1008.6 997.2
05 21.10 ЮВ 6 35 км 9/0 2000 м
[]
-6.7 -11.5 69 -15 -15 1009.4 998.0
06 21.10 ЮВ 8 35 км 9/0 2000 м
[]
-6.5 -11.5 68 -15 -15 1010.2 998.8 -8.1 -6.1
08 21.10 ЮВ 6 35 км 9/9 700 м
[]
-7.2 -11.8 70 -15 -15 1011.6 1000.2
07 21.10 ЮВ 6 35 км 9/0
[]
-6.6 -12.0 65 -14 -14 1010.9 999.5
09 21.10 ЮВ 5 35 км 9/0
[]
-7.3 -12.5 66 -15 -15 1012.1 1000.7
10 21.10 ЮВ 7 35 км 1/0
[]
-7.1 -12.1 67 -15 -15 1012.7 1001.2
11 21.10 ЮВ 6 35 км 4/0
[]
-7.2 -12.0 69 -15 -15 1013.3 1001.9
12 21.10 ЮВ 6 35 км 1/0
[]
-7.1 -12.1 67 -15 -15 1013.8 1002.3

 

Местоположение метеостанции Qaarsut Mittarfia (Гренландия): широта 70.73 долгота -52.70 высота над уровнем моря 89 м.

В архиве по умолчанию представлена погода в Qaarsut Mittarfia за последнюю неделю. Архивные данные за месяц целиком и за предыдущие месяцы, начиная с января 2011 года, Вы можете получить, выбрав интересующий диапазон дат из раскрывающегося списка и нажав кнопку "Ввод!".


*Определитесь, кто Вы:
робот инопланетянин человек

Внимание! Время в таблицах - всемирное. Для получения местного времени необходимо прибавить поправку, которая в Qaarsut Mittarfia равна -3 ч.

Смотрите также архив погоды в соседних городах и на ближайших метеорологических станциях:

Погода в Nuussuaataa (Гренландия) (70 км)
Погода в Ilulissat (Гренландия) (178 км)
Погода в Aasiaat Mittarfia (Гренландия) (224 км)
Погода в Aasiaat (Гренландия) (226 км)
Погода в Mittarfik Upernavik (Гренландия) (257 км)
Погода в Kitsissut (Гренландия) (332 км)
Погода в Kitsissorsuit (Гренландия) (405 км)
Погода в Kangerlussuaq (Гренландия) (420 км)
Погода в Sisimiut Mittarfia (Гренландия) (422 км)
Погода в Summit (Гренландия) (538 км)

Пояснения к столбцам:

Ветер - указаны скорость ветра в м/с - средняя за 10 мин, порывы в срок и между сроками (в фигурных скобках) и направление, откуда дует ветер: С - северный, СВ - северо-восточный, В - восточный, ЮВ - юго-восточный, Ю - южный, ЮЗ - юго-западный, З - западный, СЗ - северо-западный.
Видимость - горизонтальная дальность видимости в метрах или километрах. При видимости от 1 до 10 км при отсутствии осадков обычно наблюдается дымка, при ухудшении видимости до 1 км и менее - туман. В сухую погоду видимость может ухудшаться дымом, пылью или мглою.
Явления - указаны атмосферные явления, наблюдавшиеся в срок или в последний час перед сроком; фигурными скобками обозначены явления, наблюдавшиеся между сроками (за 1-3 часа до срока); квадратными скобками обозначены град или гололедные отложения с указанием их диаметра в мм.
Облачность - указаны через наклонную черту общая и нижняя облачность в баллах и высота нижней границы облаков в метрах; квадратными скобками обозначены формы облаков: Ci - перистые, Cs - перисто-слоистые, Cc - перисто-кучевые, Ac - высококучевые, As - высокослоистые, Sc - слоисто-кучевые, Ns - слоисто-дождевые, Cu - кучевые, Cb - кучево-дождевые. Подробнее классификацию облаков см. в Атласе облаков (PDF).
T - Температура воздуха - температура, измеренная на высоте 2 м над землей.
Td - Температура точки росы - температура, при понижении до которой содержащийся в воздухе водяной пар достигнет насыщения.
f - Относительная влажность воздуха - влажноcть воздуха, измеренная на высоте 2 м над землей.
Te - Эффективная температура - температура, которую ощущает одетый по сезону человек в тени. Характеристика душности погоды. При расчете учитывается влияние влажности воздуха и скорости ветра на теплоощущения человека.
Tes - Эффективная температура на солнце - температура, которую ощущает человек, с поправкой на солнечный нагрев. Характеристика знойности погоды. Зависит от высоты солнца над горизонтом, облачности и скорости ветра. Ночью, в пасмурную погоду, а также при ветре 12 м/с и более поправка равна нулю.
P - Атмосферное давление - приведенное к уровню моря атмосферное давление.
Po - Атмосферное давление - измеренное на уровне метеостанции атмосферное давление.
Tmin - Минимальная температура - минимум температуры воздуха на высоте 2 м над землей.
Tmax - Максимальная температура - максимум температуры воздуха на высоте 2 м над землей.
R - Количество осадков - Количество выпавших осадков за период времени, мм. При наведении курсора мыши на число - период времени, за который выпало указанное количество осадков.
R24 - Количество осадков - Количество выпавших осадков за 24 часа, мм.
S - Снежный покров - Высота снежного покрова, см. При наведении курсора мыши на число - состояние снежного покрова и степень покрытия местности в баллах.